Wind_Speed
54 52 48 47 51 57 59 56 56 61 61 59 59 56 53 51 47 49 50 47 42 39 36 34 30 32 39 39 38 42 42 40 40 41 42 44 43 42 44 46 45 44 44 43 42 41 41 40 40 38 37 37 36 35 33 32 31 28 25 23 22 22 25 28 31 34 35 36 37 38 37 36 36 34 32 31 30 29 28 28 28 29 30 29 28 27 28
57 56 52 50 52 55 57 57 57 59 60 63 65 59 54 57 57 53 51 50 48 46 42 39 34 33 37 38 38 42 44 42 41 43 43 43 46 46 46 49 50 49 48 46 44 43 43 42 41 39 38 37 36 36 35 33 32 30 27 25 22 21 23 25 29 33 35 36 37 38 38 37 36 35 34 32 31 29 29 29 28 28 30 30 29 28 28
57 59 56 52 52 55 57 58 58 57 57 62 67 61 56 62 64 58 54 53 53 52 47 41 38 37 38 39 40 42 45 43 42 45 46 44 46 48 46 48 51 51 50 49 46 45 45 44 41 39 38 37 36 36 36 34 33 31 29 27 23 21 22 24 27 31 34 36 36 37 38 38 37 36 35 34 32 30 30 29 28 28 29 30 30 29 28
52 57 57 53 50 53 58 58 57 57 56 58 67 68 63 66 68 62 58 55 54 55 51 43 39 39 39 41 42 43 44 45 44 46 49 49 49 50 49 49 50 51 50 49 47 46 45 43 41 39 38 36 37 37 37 35 34 33 31 29 25 23 23 24 25 27 32 34 35 36 37 38 38 37 36 35 33 32 31 30 29 28 28 29 30 30 28
46 50 54 55 51 53 61 60 54 55 56 57 64 70 67 67 69 66 61 56 56 59 55 46 42 41 39 38 41 42 43 45 46 48 51 52 52 51 50 50 50 51 51 50 48 46 45 44 42 39 37 36 35 36 36 35 35 35 33 31 28 25 24 23 23 25 29 32 34 35 35 37 38 38 37 36 34 32 32 31 31 29 28 29 31 31 30
40 43 49 55 54 52 57 58 50 50 55 57 60 66 69 68 69 69 66 63 64 65 60 54 53 51 44 38 38 42 45 45 45 46 49 52 52 51 50 50 52 52 51 50 49 47 46 45 42 40 39 36 34 35 37 37 37 37 36 34 31 27 25 23 22 24 28 30 32 33 33 35 37 38 37 36 35 34 33 32 31 30 29 29 30 31 32
36 38 42 51 53 48 48 53 52 49 53 57 58 62 68 70 68 68 68 68 70 68 61 58 59 59 55 48 43 42 44 45 44 45 47 50 52 52 51 51 52 53 52 51 49 48 47 45 43 42 41 38 36 36 37 37 37 37 37 35 32 29 26 24 23 24 26 29 31 31 31 32 34 36 37 36 35 35 34 32 31 30 30 30 31 31 32
33 35 39 45 47 43 44 55 60 54 50 53 56 59 66 70 68 65 64 66 69 68 61 57 57 56 54 54 51 45 43 45 45 45 47 50 52 53 53 53 53 53 53 52 51 49 47 45 45 44 42 39 37 35 35 35 35 36 37 35 33 31 27 25 23 24 26 27 29 30 31 31 31 34 35 36 35 35 35 33 32 31 31 31 31 32 33
32 33 36 38 39 40 45 55 60 57 52 52 54 55 61 67 68 66 67 68 67 65 62 61 60 56 50 49 51 48 45 45 45 45 47 50 53 54 54 54 54 54 54 53 52 50 48 47 47 45 42 40 38 36 35 34 34 36 36 35 33 31 28 26 24 26 26 26 27 29 30 30 30 31 32 34 35 35 35 34 33 32 32 32 32 33 33
31 30 32 34 36 41 46 50 55 57 56 53 52 52 54 60 67 70 71 70 66 62 60 60 63 61 54 51 51 48 46 46 46 46 47 49 53 55 56 56 56 55 54 53 52 51 50 48 47 45 44 43 41 39 37 34 34 36 36 34 32 30 29 27 26 27 27 25 25 27 29 30 31 31 31 32 33 34 35 35 34 33 33 33 33 33 33
30 29 28 30 35 41 45 47 51 55 54 49 48 50 51 55 63 69 70 67 66 64 56 54 60 63 61 58 55 48 46 47 47 47 48 49 52 56 57 57 57 56 55 54 53 53 51 50 48 47 47 45 43 41 39 36 35 36 35 33 31 30 30 28 27 28 28 25 24 26 27 29 31 32 32 32 33 33 34 35 34 34 33 33 32 32 32
26 26 26 27 32 39 45 46 48 52 51 46 44 47 51 52 55 63 68 65 64 64 57 53 58 63 64 63 58 49 46 47 47 47 48 49 51 55 58 59 58 57 56 55 54 54 53 51 49 49 48 48 46 44 41 39 37 36 34 32 31 31 30 29 28 29 29 26 24 24 26 28 30 32 33 33 33 33 34 34 34 34 33 32 31 31 31
25 24 25 27 30 37 44 46 46 48 50 50 47 45 48 50 50 57 65 66 64 63 59 55 58 61 62 63 60 52 47 47 47 47 48 48 50 53 56 58 59 58 57 56 55 56 54 52 50 50 50 49 48 46 44 41 38 36 34 34 32 32 31 30 29 29 29 27 25 25 26 27 28 31 33 33 33 32 32 33 33 33 32 31 31 30 30
27 26 26 28 32 36 41 44 45 45 48 53 53 48 47 50 52 54 59 63 65 64 60 56 57 59 59 61 62 56 49 47 46 47 48 48 49 50 53 56 58 58 57 56 56 56 55 52 50 50 50 49 47 46 44 42 39 37 36 35 34 33 32 31 30 30 30 29 27 26 26 26 27 29 31 33 33 32 32 32 31 31 31 30 30 30 29
27 27 28 30 33 35 38 42 44 45 47 52 54 51 48 49 51 51 53 57 62 64 61 58 57 58 58 60 62 58 51 47 46 45 46 47 48 49 51 54 56 57 55 55 56 56 54 51 49 51 51 48 46 44 42 42 42 41 39 37 35 34 33 32 31 30 30 30 29 27 27 26 26 27 29 32 32 31 31 31 30 30 31 30 30 29 28
27 27 28 30 32 34 37 41 43 44 47 50 52 52 50 48 48 49 50 53 56 60 61 59 58 59 57 58 61 59 51 46 45 45 44 45 46 48 49 52 54 53 52 53 54 53 52 50 49 51 51 49 46 43 43 44 45 43 40 38 36 35 34 33 31 30 30 30 29 28 27 27 27 27 28 30 31 31 31 31 30 30 30 29 29 28 27
27 28 27 28 30 33 36 40 42 43 45 47 49 50 49 48 47 47 48 50 52 55 58 60 60 61 58 57 59 58 51 46 45 44 43 43 45 47 48 50 51 51 50 50 50 50 50 50 49 49 49 49 48 46 45 46 47 44 42 40 38 37 36 35 32 31 30 30 29 29 28 27 27 27 28 28 29 30 30 30 29 29 29 28 27 27 27
25 27 27 27 29 33 36 38 40 41 43 46 48 47 46 46 45 44 46 49 50 51 55 60 62 63 61 57 57 56 50 46 46 45 43 43 44 45 46 48 50 49 47 46 46 47 47 47 46 46 46 48 49 49 47 47 47 46 44 41 39 39 38 36 33 31 30 29 29 29 28 27 27 27 27 28 28 29 30 29 28 27 27 27 26 26 25
21 24 26 26 27 31 35 37 39 40 42 45 47 45 43 43 43 42 44 49 50 49 52 58 62 63 62 59 57 55 50 47 46 45 43 43 43 42 43 45 45 43 41 41 43 44 44 43 43 43 44 46 49 51 50 49 49 48 46 43 41 40 38 36 33 31 30 29 29 29 27 27 27 27 27 28 28 28 28 27 27 27 26 26 26 25 24
19 23 25 26 27 29 33 36 37 39 41 45 48 46 41 40 41 41 42 48 51 49 49 55 61 63 61 59 57 54 51 48 47 45 45 44 43 42 41 41 41 39 39 40 41 42 42 42 41 40 40 42 46 50 51 50 50 50 47 43 42 40 38 35 33 31 30 29 29 28 27 27 27 28 28 28 27 27 27 27 27 27 27 26 26 25 25
19 22 23 24 26 27 30 33 36 38 41 45 48 47 42 40 41 40 41 46 50 50 49 52 57 60 59 58 57 55 52 50 48 46 46 45 44 42 42 41 40 39 38 38 39 39 40 41 41 41 40 40 42 47 50 51 51 51 48 44 41 40 37 35 33 31 30 30 29 28 28 29 29 29 29 29 28 28 29 29 28 28 27 27 27 26 26
19 21 22 23 24 25 26 29 33 37 41 45 49 48 43 40 40 39 40 45 49 49 49 51 54 56 56 56 56 55 53 51 49 48 48 46 45 44 42 41 40 39 38 38 38 38 39 39 41 43 43 43 44 47 50 52 52 51 48 43 40 38 36 34 33 31 30 30 29 29 29 29 29 29 29 29 30 29 29 28 28 28 28 28 27 27 27
19 21 21 21 22 23 23 26 30 34 40 46 51 49 43 39 39 38 38 44 49 49 49 51 52 52 52 54 56 55 53 51 50 50 49 48 46 45 43 42 40 39 39 39 38 37 38 39 41 44 45 45 47 48 50 52 53 52 47 42 38 36 35 33 33 33 32 31 29 29 29 29 29 30 31 31 31 30 30 29 30 30 30 29 29 28 27
19 21 22 20 19 19 22 25 30 34 38 45 51 52 44 39 38 37 36 42 49 51 49 49 50 50 50 52 55 54 53 52 52 51 51 49 48 47 45 43 42 41 42 42 40 38 39 40 41 43 45 45 46 48 50 53 53 50 45 41 38 35 35 35 35 34 34 33 31 30 31 31 31 32 33 33 33 32 32 32 33 33 32 32 31 30 28
17 21 22 20 19 18 21 25 29 33 37 43 49 52 46 40 37 37 36 40 48 53 52 49 47 48 49 51 54 54 53 52 53 53 53 52 51 49 47 46 45 46 47 46 44 41 41 41 41 42 43 44 45 47 50 52 51 47 43 40 38 37 36 37 37 36 36 35 33 33 33 32 32 33 34 34 34 34 34 34 34 34 34 33 33 31 30
15 19 21 20 19 18 19 23 27 31 35 39 46 49 46 40 37 37 37 38 44 51 53 49 46 46 47 50 53 54 53 54 55 54 54 55 54 52 50 49 49 48 45 46 48 45 41 41 41 41 42 44 45 47 50 50 48 45 42 40 39 39 39 38 38 39 39 37 35 36 36 35 34 35 36 36 36 36 36 35 35 35 34 34 34 33 33
12 16 20 21 20 19 18 21 25 30 33 37 42 46 44 40 38 37 37 38 42 48 52 50 47 46 47 50 53 54 54 56 57 55 54 56 57 55 52 52 53 50 44 43 46 46 42 40 41 42 44 46 47 48 49 49 46 44 43 42 41 40 41 40 39 40 41 40 38 38 39 38 37 38 38 38 38 38 37 37 37 36 35 35 35 35 35
10 12 17 20 20 18 18 20 24 28 31 34 39 42 42 39 37 36 38 41 42 45 48 49 48 48 48 50 53 55 55 57 58 56 55 56 58 57 55 54 54 53 50 45 45 46 44 41 42 44 45 46 48 49 49 48 46 44 43 43 43 43 42 41 41 41 42 41 41 41 41 40 40 40 40 40 39 39 40 40 39 38 37 37 37 38 38
8 10 14 18 19 17 17 19 22 26 29 32 36 39 39 38 36 35 37 41 44 45 46 47 49 50 50 50 53 57 57 55 56 56 56 58 59 59 59 57 55 55 54 50 47 46 46 44 43 45 47 47 48 50 50 48 47 46 45 44 44 44 43 41 41 43 44 43 43 43 43 43 43 44 43 42 41 41 42 43 43 41 40 41 40 40 39
8 8 10 15 17 16 16 18 21 25 28 30 34 36 35 35 35 34 34 38 43 45 46 47 49 52 51 50 52 57 57 55 55 56 57 59 62 63 62 61 59 57 57 56 52 50 50 50 48 47 48 49 49 50 51 51 49 47 47 46 45 44 43 43 42 43 44 44 44 44 45 45 46 46 45 45 45 45 46 47 46 46 45 45 44 43 41
9 8 8 11 14 15 16 17 20 23 26 29 32 34 32 32 34 36 36 37 41 46 48 49 51 53 52 51 52 55 57 55 54 55 56 59 62 66 66 65 63 61 59 59 58 55 52 52 52 50 49 50 51 51 51 51 51 50 48 47 46 45 44 44 43 43 44 45 45 46 46 46 47 46 45 45 46 47 49 49 49 48 47 47 47 46 45
10 8 6 8 11 14 16 18 20 22 25 28 31 32 32 31 33 37 39 39 41 45 48 51 54 54 53 52 52 53 55 56 56 55 55 57 61 66 67 66 66 65 62 61 61 59 55 52 52 54 53 52 51 53 53 52 52 52 50 48 47 47 47 46 45 45 45 45 45 45 44 46 48 49 48 46 45 46 47 48 47 47 47 47 48 48 47
12 9 5 5 7 11 14 17 19 21 24 27 29 30 31 31 33 36 38 39 40 43 46 49 53 55 55 53 52 50 53 57 59 58 56 56 58 64 69 70 69 68 66 64 63 62 60 57 55 55 58 57 54 53 55 55 54 53 52 51 50 49 49 49 48 48 48 48 48 47 46 44 46 48 48 45 43 43 43 42 42 42 42 43 44 46 47
11 10 7 5 6 8 11 14 18 20 23 25 27 27 28 30 32 36 38 36 36 41 44 44 47 52 55 54 51 48 51 56 60 61 59 56 54 56 63 70 74 72 68 67 67 65 63 63 61 58 57 59 59 57 56 57 58 56 54 53 53 52 51 51 51 52 52 52 52 51 48 44 43 45 46 44 42 41 40 40 40 39 39 40 40 41 42
9 9 8 7 6 7 9 12 15 19 21 24 26 26 26 27 30 34 36 35 34 38 41 41 42 47 53 55 52 49 49 52 57 60 60 58 56 52 49 54 68 77 74 67 67 69 66 64 65 64 60 57 59 61 59 56 57 57 56 54 54 54 53 53 54 55 56 55 53 52 50 46 44 46 46 44 42 41 40 40 40 40 40 40 40 40 41
8 8 7 7 7 7 8 10 13 17 20 22 25 27 27 27 28 30 33 35 36 38 40 41 42 44 49 52 52 50 48 48 51 55 55 54 58 61 53 44 53 72 79 73 68 69 70 69 67 66 64 61 59 60 60 58 57 58 57 55 54 54 55 55 56 57 58 57 55 53 51 48 45 44 45 45 44 42 40 39 39 39 40 40 40 40 41
8 8 7 7 7 6 7 9 12 15 18 21 24 27 28 29 29 29 31 33 36 38 40 41 42 43 45 47 49 51 50 47 46 49 50 47 48 57 63 55 47 54 69 78 75 69 70 72 71 68 66 65 64 62 60 59 60 60 59 57 56 56 57 58 59 59 59 59 57 54 52 49 46 43 44 45 44 41 39 38 39 39 40 39 39 40 41
8 8 7 7 7 7 6 7 10 13 17 20 23 26 28 30 31 32 32 33 35 37 39 40 42 43 44 44 45 47 49 48 45 44 46 44 41 43 53 60 56 49 53 68 78 76 70 69 71 72 69 67 67 66 64 62 61 62 61 59 59 58 58 60 61 60 60 61 60 57 56 54 50 46 44 42 39 37 36 37 38 40 40 39 39 40 42
9 8 7 7 7 7 7 7 9 12 15 19 22 24 27 29 31 33 33 34 34 36 37 38 40 41 41 42 43 44 45 46 46 44 41 40 39 37 40 49 58 58 51 52 65 77 76 70 67 69 70 69 68 68 68 67 65 63 62 61 61 61 60 60 62 62 62 63 63 60 57 55 54 53 52 51 48 45 44 43 42 41 41 41 41 41 42
11 9 8 8 8 8 8 8 9 12 15 18 21 23 25 28 31 33 34 35 36 36 36 36 36 38 38 38 39 41 42 43 44 45 42 39 38 38 37 38 45 55 59 55 55 63 72 73 69 66 67 68 68 69 70 70 69 67 63 61 61 61 61 61 63 64 64 65 64 61 58 57 57 58 58 58 57 54 52 50 47 44 41 40 39 39 40
13 11 9 8 9 9 10 10 11 12 15 18 20 23 25 27 30 32 33 34 35 35 36 35 34 34 35 35 36 38 40 40 40 40 41 40 38 37 38 38 37 41 51 59 59 56 58 65 68 68 69 70 70 69 70 70 70 69 68 66 64 63 61 62 64 65 66 66 65 62 60 60 61 60 59 59 58 56 54 54 53 50 48 45 44 44 44
13 13 11 10 9 10 10 11 11 12 14 16 19 21 24 28 30 31 32 33 34 34 34 35 34 33 33 34 34 34 35 37 36 36 36 38 38 37 36 37 36 35 38 47 55 57 56 56 58 61 65 69 70 70 70 69 67 67 67 67 67 66 66 65 66 67 67 66 65 63 62 62 62 62 60 60 60 60 59 58 57 57 56 55 54 54 53
13 13 12 11 11 10 11 12 12 12 13 16 17 19 22 26 29 30 31 32 34 35 34 33 34 34 33 33 33 33 32 32 32 32 31 32 35 36 35 34 35 34 33 35 41 48 52 53 54 54 57 61 65 67 69 69 69 68 68 67 67 68 68 68 69 69 69 68 67 66 64 62 61 61 61 62 65 65 63 61 59 60 60 59 59 58 57
13 13 13 13 12 12 11 12 13 13 14 16 17 18 19 21 25 28 30 31 33 35 36 35 34 34 34 33 32 32 32 31 30 29 29 28 29 32 33 33 32 32 32 32 34 37 41 45 48 51 53 55 58 61 63 65 67 69 71 71 71 70 69 70 70 70 70 69 68 67 66 64 62 61 61 62 64 65 64 62 62 63 64 64 63 63 62
13 12 13 14 14 14 13 13 13 13 14 15 17 19 19 20 21 25 28 30 32 33 35 37 36 35 35 35 34 33 33 32 31 29 29 28 27 27 28 29 29 29 29 29 30 32 34 36 38 42 45 48 50 53 56 59 61 62 64 67 69 70 70 71 71 71 70 69 68 67 66 65 64 63 62 62 62 63 64 65 66 67 68 68 68 67 67
14 13 13 14 15 15 15 14 14 14 15 15 17 18 19 20 21 22 24 27 30 32 33 36 37 37 37 37 36 35 33 33 32 31 30 30 29 28 27 26 26 26 27 27 28 29 31 32 33 34 35 38 40 42 45 48 51 52 52 55 59 63 66 68 69 71 72 71 69 66 64 63 63 63 64 64 64 66 67 68 69 70 70 70 70 70 69
15 14 14 14 15 16 17 16 15 16 16 16 17 18 19 21 22 22 23 24 27 30 32 34 36 38 39 38 38 37 36 35 34 34 33 33 32 31 30 28 27 26 26 26 26 27 28 30 31 31 31 31 33 35 36 38 40 41 42 44 47 53 57 60 62 65 68 69 68 65 62 60 60 61 62 64 65 68 70 70 69 68 69 69 69 69 69
16 16 15 15 15 16 17 17 17 17 17 18 18 18 19 20 21 23 24 24 25 27 30 32 33 36 38 39 39 38 38 37 37 36 36 35 35 34 33 32 31 30 29 28 27 27 27 28 28 29 30 29 29 30 32 33 34 35 36 36 37 40 44 48 51 54 59 62 64 63 62 60 59 60 61 63 65 67 68 68 68 67 67 67 67 67 67
17 17 17 16 15 15 16 17 18 19 19 19 19 19 19 20 21 22 24 25 25 26 28 29 31 33 35 38 39 39 39 38 38 38 38 37 38 37 37 36 35 34 33 32 31 30 30 30 29 29 29 29 29 30 30 31 32 33 34 34 33 33 34 37 40 43 46 49 51 53 54 55 56 56 57 57 56 55 55 55 56 57 58 59 59 60 62
16 17 17 17 16 16 15 16 18 20 20 20 20 20 20 20 21 22 23 25 26 26 26 27 29 31 32 34 37 38 39 39 38 39 39 39 39 39 38 38 38 38 37 36 35 35 34 34 33 33 32 31 31 31 31 32 32 33 33 34 34 33 33 34 35 36 38 39 40 42 43 45 47 48 49 48 46 44 44 44 45 45 46 47 47 49 52
15 16 17 17 17 16 16 16 17 19 21 21 21 22 21 20 20 21 22 24 25 26 27 27 28 29 30 32 34 36 38 38 38 38 38 38 38 38 39 39 39 40 40 40 40 39 38 38 38 37 37 36 35 34 33 34 34 34 35 35 35 35 35 35 36 36 37 38 39 39 40 41 43 44 45 45 45 44 43 44 43 43 43 44 45 47 51
13 15 16 17 17 17 17 16 17 18 20 21 22 22 22 22 22 21 22 23 25 26 27 28 28 29 29 31 32 34 35 37 37 37 37 37 37 37 38 38 38 39 40 40 41 41 42 41 41 41 41 41 40 39 38 38 37 37 37 38 38 38 38 38 39 39 39 40 40 41 41 42 42 43 43 43 43 43 43 43 43 43 44 46 48 49 52
Wind_Direction
227 225 226 227 226 223 221 220 217 213 210 207 204 206 209 210 211 208 203 202 200 193 197 212 223 229 229 225 223 223 223 220 216 216 219 220 221 220 217 216 217 220 223 225 224 224 227 229 230 231 232 233 236 237 238 240 241 240 238 238 239 240 241 240 237 234 233 231 228 226 224 223 223 224 225 224 224 225 226 227 226 225 225 225 224 223 221
226 225 223 223 224 223 221 219 218 218 215 209 206 206 207 208 212 211 205 204 203 199 200 206 208 214 221 222 220 220 220 218 214 212 213 215 216 218 217 215 214 216 219 220 220 221 225 227 227 228 230 232 234 238 239 241 243 244 242 240 239 241 243 242 239 235 234 233 231 228 227 225 225 226 226 227 226 226 227 229 229 228 228 228 227 227 225
227 225 223 222 224 222 221 221 219 218 218 213 208 207 206 207 210 210 207 206 206 203 201 201 203 208 214 215 214 214 216 217 214 209 209 212 214 216 217 216 215 215 216 217 216 218 222 225 225 226 228 229 232 235 238 241 244 246 247 244 242 243 244 244 241 237 235 234 234 231 229 227 226 227 228 229 228 228 229 231 232 231 230 230 230 230 229
228 226 223 222 224 223 222 221 218 217 217 214 210 209 207 208 210 210 208 209 209 206 202 198 198 204 210 212 212 211 213 215 214 209 207 210 212 212 214 216 216 216 216 215 215 217 222 226 226 225 226 227 229 232 235 239 242 246 248 247 244 243 244 245 245 242 237 235 235 234 231 229 228 229 230 230 230 230 230 232 233 233 233 232 231 231 231
226 225 224 222 221 222 222 219 216 216 216 214 212 211 209 209 209 209 209 209 210 208 203 198 198 202 208 211 210 209 210 213 214 211 209 211 213 213 214 216 217 216 215 215 215 216 221 226 228 227 226 226 227 230 234 237 240 244 246 246 245 244 244 245 246 245 242 237 236 236 234 231 230 230 231 232 233 233 233 234 234 234 234 234 233 232 232
225 222 223 223 221 222 222 218 216 217 216 216 215 213 211 209 208 209 209 209 209 208 204 203 207 210 212 211 207 206 209 213 214 213 211 212 213 214 215 215 216 216 216 216 216 217 221 225 227 228 228 225 224 226 230 232 235 239 242 244 245 244 243 244 245 245 244 241 239 238 237 234 232 232 232 233 235 236 236 236 236 236 236 235 235 233 232
225 222 222 224 224 224 221 217 216 217 215 215 217 217 215 211 210 212 213 213 214 212 206 206 212 216 217 218 216 209 208 211 214 213 213 212 213 214 215 215 215 215 216 217 218 219 222 224 227 229 230 227 224 224 228 230 231 235 238 241 244 244 241 242 244 245 245 243 242 241 240 238 235 234 234 234 236 238 239 239 239 239 238 237 237 235 234
223 222 223 225 225 223 218 215 215 214 214 215 216 219 219 214 212 215 216 217 219 218 211 207 210 215 217 221 224 217 209 209 212 213 213 212 213 214 215 216 216 216 216 218 219 221 223 225 227 229 231 231 228 226 227 230 231 233 235 238 240 242 241 241 243 246 245 243 242 242 243 241 239 237 236 236 238 240 242 242 241 241 240 239 239 238 237
220 220 222 225 225 221 218 217 215 213 215 216 216 219 220 216 213 216 217 218 219 220 217 211 210 213 214 217 221 219 213 211 211 213 214 213 214 215 216 216 217 217 217 218 220 222 223 225 228 230 231 232 232 229 227 229 230 232 234 235 237 240 242 242 244 247 247 244 242 242 243 243 242 241 239 238 239 241 242 243 243 243 243 242 241 240 240
218 217 219 221 221 219 216 216 214 213 216 218 217 219 221 218 215 215 217 218 218 219 219 214 212 213 214 215 217 215 214 214 212 213 215 215 214 216 217 218 218 218 218 219 221 224 224 224 227 229 230 232 234 234 232 231 231 232 233 234 233 237 241 243 245 249 249 246 243 242 243 244 244 243 242 241 240 241 242 243 243 243 243 243 243 243 242
216 215 216 215 218 217 213 212 212 212 215 217 218 221 223 221 218 216 217 217 217 217 216 212 210 212 213 215 216 212 211 214 213 212 215 216 215 216 218 219 219 220 220 220 222 225 226 226 226 228 230 231 233 236 237 235 232 231 232 232 231 234 240 243 246 250 251 249 244 242 242 243 244 244 243 242 241 241 241 242 242 243 244 245 245 245 245
216 215 213 212 215 214 209 209 211 210 209 209 212 219 223 221 218 217 219 219 216 215 213 208 208 211 211 213 216 212 209 213 213 213 215 216 217 217 218 219 221 221 222 222 224 226 227 226 227 229 231 233 233 235 239 238 233 231 231 230 229 232 237 240 244 249 252 251 248 244 243 242 242 242 242 242 242 241 242 242 242 243 244 246 247 247 246
215 215 214 211 213 212 208 209 211 209 207 206 207 212 217 218 218 218 219 220 218 216 212 206 207 211 209 210 214 213 210 211 213 213 214 216 217 218 218 219 221 222 223 223 225 227 228 227 227 229 232 234 234 235 237 238 235 232 230 228 227 230 234 239 243 248 252 254 251 247 244 242 241 241 240 241 241 242 242 243 243 244 245 247 247 247 246
215 215 214 212 213 211 208 208 210 209 208 208 209 210 212 215 217 218 218 219 219 218 213 207 207 211 209 208 212 214 211 211 212 213 214 215 216 217 218 220 221 222 223 225 226 228 229 228 228 229 231 233 233 233 234 235 235 234 230 227 226 229 234 239 244 249 253 254 252 248 246 245 243 241 239 239 240 241 243 244 244 244 245 246 247 246 244
217 218 217 215 214 212 207 206 208 210 210 210 211 213 214 215 215 216 216 217 218 219 215 208 208 210 209 208 212 213 212 211 212 213 214 214 215 216 217 219 221 222 223 225 227 229 230 229 228 229 231 232 232 232 229 230 233 234 230 228 228 231 235 241 245 249 252 253 251 248 247 247 246 244 240 239 239 240 242 243 243 244 244 245 245 243 241
217 219 221 219 215 211 206 205 207 210 211 212 212 214 217 217 215 214 216 216 217 218 216 210 208 210 209 208 211 212 211 209 210 212 214 214 213 214 216 218 221 223 224 226 228 230 232 231 230 230 231 231 231 229 225 226 231 232 230 228 229 231 236 240 244 248 251 251 249 247 247 247 246 244 242 239 239 240 241 241 241 242 243 243 242 239 236
218 219 222 220 213 208 205 206 207 209 211 213 213 213 216 218 217 217 217 216 217 218 216 211 208 209 209 208 209 210 209 207 209 211 213 212 212 213 215 217 221 223 224 227 229 230 232 232 231 231 230 229 229 227 224 225 229 231 230 228 228 230 235 240 244 247 248 248 246 246 245 245 244 243 241 240 238 238 239 240 240 240 240 239 237 235 234
221 219 219 218 211 206 206 207 208 210 212 213 212 211 213 216 216 216 217 216 216 217 215 210 207 209 210 209 208 208 207 206 207 210 211 211 212 212 214 216 219 221 223 224 226 228 229 230 230 228 227 226 227 226 225 225 228 229 229 229 228 230 235 239 242 244 245 244 244 244 244 242 241 240 239 237 236 236 236 237 237 236 236 235 234 235 235
225 224 220 216 210 208 209 209 209 210 212 213 211 208 212 215 212 212 216 216 214 215 214 209 207 209 210 209 207 207 206 205 206 208 210 211 211 212 213 215 216 216 215 215 217 221 223 225 227 227 224 222 223 224 224 225 227 228 229 229 229 231 235 238 239 240 241 241 242 242 242 240 238 237 236 235 234 234 235 234 233 233 233 233 233 233 233
232 230 224 219 215 212 211 210 211 212 213 213 210 206 208 212 209 207 212 215 213 214 213 209 208 210 211 209 207 206 204 204 204 206 208 209 209 210 212 213 210 207 206 208 212 216 219 221 222 224 224 222 221 223 224 224 224 227 228 228 229 232 235 236 235 236 238 239 239 239 237 236 234 233 233 233 232 231 231 231 230 230 231 231 231 230 230
236 234 231 229 226 221 214 209 210 213 213 212 209 207 208 209 206 205 209 211 211 212 212 209 209 211 210 208 207 205 204 203 203 203 205 207 208 209 211 210 206 204 206 209 211 214 217 218 218 218 220 220 221 221 222 221 223 226 227 227 230 233 234 231 231 233 235 236 236 235 234 233 233 232 231 231 231 229 229 229 229 230 230 230 230 229 230
239 237 236 235 234 231 223 213 210 213 214 211 207 206 207 206 203 204 208 208 208 211 211 210 210 211 209 207 206 205 203 203 202 202 203 205 206 209 212 210 207 206 208 211 212 214 217 218 217 216 216 217 218 219 218 218 221 225 226 228 230 231 229 227 229 232 234 234 234 234 233 233 232 231 231 231 230 230 230 230 230 230 230 230 231 231 232
239 240 239 238 239 237 230 220 213 212 213 210 207 206 207 205 201 202 206 207 206 208 210 210 212 211 208 205 205 204 203 202 201 201 203 205 206 208 212 213 210 207 208 211 213 214 217 218 218 217 215 215 216 217 215 215 219 223 225 227 228 227 226 227 230 232 234 235 235 234 234 233 232 230 229 229 229 229 228 227 226 227 228 228 230 232 233
238 239 241 242 240 236 227 219 214 212 212 210 208 208 209 209 205 203 205 205 205 206 208 210 212 212 208 205 205 204 202 202 202 202 203 205 206 208 211 214 213 210 210 212 213 214 216 217 217 216 214 213 214 214 213 215 219 222 223 225 226 225 225 228 232 234 236 236 235 235 234 232 231 230 229 229 229 229 228 226 225 226 228 228 230 232 233
240 239 243 245 242 236 226 219 214 211 210 210 210 210 211 212 208 204 203 204 204 206 207 210 212 211 208 206 205 203 201 201 202 203 203 204 206 208 211 214 215 213 212 212 212 212 213 214 215 215 214 213 212 212 212 215 218 220 221 223 224 224 226 229 232 235 237 237 235 235 235 233 231 230 229 229 228 228 228 227 227 228 230 231 232 233 233
248 241 242 245 242 236 228 221 216 211 208 208 209 210 211 212 208 204 202 202 203 205 207 209 209 208 207 207 205 202 201 201 203 204 204 204 205 208 210 213 217 216 213 211 212 213 212 211 212 212 212 212 212 211 212 215 218 219 219 221 223 224 227 230 232 235 238 239 238 236 235 234 232 231 230 229 228 227 228 229 230 231 232 233 234 236 236
264 248 244 245 243 234 225 220 217 212 208 206 207 209 210 210 206 202 201 201 202 204 206 208 207 206 205 205 204 202 200 201 203 206 206 205 205 208 210 213 217 218 216 213 212 213 212 211 210 209 209 210 211 212 213 216 219 220 220 221 223 226 228 230 233 236 238 239 239 238 236 234 233 233 232 231 228 227 228 230 231 233 233 234 236 237 238
284 261 248 245 243 235 222 215 215 212 207 204 205 207 209 208 205 201 201 202 202 203 205 206 205 204 203 203 203 202 201 201 204 207 207 206 206 208 212 214 217 218 217 215 213 212 210 208 207 208 209 210 212 214 216 219 221 222 223 224 225 227 229 231 233 236 238 238 238 237 237 236 236 236 235 233 230 229 229 230 231 233 235 236 236 237 238
291 275 256 246 243 236 221 210 209 208 204 201 203 205 207 207 205 202 201 202 202 202 202 203 203 202 202 203 203 202 201 202 204 207 207 206 206 209 213 215 216 218 218 216 215 215 212 208 206 207 209 211 213 215 218 221 222 223 224 227 229 229 230 233 236 237 237 238 238 237 236 236 236 237 238 238 235 231 231 232 232 233 235 236 237 237 239
298 290 268 250 241 234 221 210 206 204 201 199 200 201 203 205 204 203 202 203 203 202 200 200 201 201 202 203 203 204 203 202 204 207 209 207 207 210 213 215 216 216 216 217 218 217 213 208 205 206 207 210 213 215 218 220 222 223 225 228 229 229 230 234 236 236 237 238 239 238 238 238 239 239 240 241 239 235 233 233 233 233 234 235 237 238 240
307 301 284 261 246 234 221 211 204 202 201 200 198 199 201 204 204 203 202 202 203 203 202 201 200 200 202 203 203 203 204 203 204 208 210 210 209 210 212 214 215 216 215 215 217 217 212 206 205 206 207 209 212 215 217 219 221 224 226 227 228 229 231 233 234 235 236 237 239 241 242 243 244 243 243 242 240 237 236 235 236 237 237 237 238 239 241
312 306 289 267 253 240 227 214 205 201 202 201 201 202 205 205 204 203 203 203 204 205 205 204 202 201 202 203 203 203 204 205 206 208 211 213 214 213 213 213 214 215 215 215 216 217 215 210 207 207 207 208 211 214 216 219 222 224 226 227 229 230 232 235 237 239 240 241 242 243 245 248 248 247 245 242 238 236 237 238 240 241 242 242 242 242 243
316 311 298 273 259 249 237 223 210 203 202 203 205 207 208 207 206 203 202 202 204 206 208 208 207 205 205 204 205 205 206 207 208 209 210 212 212 213 215 216 214 212 214 215 216 217 217 217 215 211 208 207 208 212 215 218 221 223 225 226 228 231 233 235 238 241 242 245 245 243 245 249 250 246 240 235 232 232 235 238 240 242 244 244 244 245 245
318 313 307 292 271 256 245 232 218 208 203 203 206 208 209 209 208 206 203 203 202 203 205 208 211 211 210 209 209 209 209 209 210 211 212 212 206 202 205 210 211 211 212 214 216 217 217 219 221 221 215 209 207 211 215 217 218 221 223 225 227 230 233 235 238 240 242 245 246 243 244 247 246 240 235 233 232 233 235 239 241 243 244 245 245 246 247
314 312 304 293 278 258 246 237 226 215 206 202 203 206 209 209 209 210 211 210 207 205 206 208 210 212 213 214 215 214 212 211 213 214 215 217 214 207 199 198 202 207 210 213 215 217 218 218 221 224 223 217 211 211 215 219 220 220 222 225 228 231 233 235 238 240 240 242 245 246 246 244 242 239 236 234 232 232 234 239 242 244 245 246 246 247 248
309 310 300 287 276 258 244 237 231 223 213 204 200 202 206 209 212 214 215 215 214 214 213 212 212 213 215 217 219 219 216 215 216 217 218 220 221 219 216 207 200 203 207 210 214 217 219 220 221 223 225 224 220 216 215 217 219 221 223 226 229 232 235 237 239 241 242 242 244 245 244 243 244 242 236 231 229 230 232 236 241 244 245 246 246 246 247
305 305 298 285 273 258 240 232 230 227 221 213 205 202 202 205 209 213 216 217 218 219 219 218 218 218 218 220 222 222 221 219 219 220 222 223 223 223 224 222 213 204 204 207 211 216 219 220 222 223 224 225 227 227 224 220 218 220 223 227 230 232 234 237 238 241 243 243 243 244 244 244 244 241 232 227 227 228 229 233 240 243 245 245 246 245 246
299 295 292 282 270 257 240 226 222 223 223 219 213 207 204 203 204 206 210 214 217 220 221 222 223 223 224 225 227 227 226 225 223 222 222 224 225 226 226 225 224 219 210 206 208 213 218 219 220 222 223 225 227 230 232 230 225 221 221 225 229 231 233 236 238 239 241 241 241 242 244 243 239 233 229 227 228 229 232 238 243 245 245 246 246 245 244
291 285 279 273 262 250 237 222 213 216 220 221 218 214 210 208 205 204 204 207 210 214 218 220 223 225 227 229 231 233 233 231 230 228 226 226 226 227 228 228 229 230 227 216 209 211 216 220 221 221 222 224 225 228 231 234 234 229 224 224 227 229 231 234 237 238 240 240 239 238 239 237 232 229 230 234 237 240 243 246 246 244 244 244 243 241 241
285 280 273 266 254 241 230 221 213 210 213 217 219 217 214 212 209 206 204 204 206 208 210 214 218 223 226 228 231 234 236 237 235 233 232 233 231 228 228 231 232 233 234 232 223 215 215 218 222 223 223 224 226 228 229 232 236 236 234 232 233 233 233 235 237 239 240 240 238 238 238 235 229 227 231 236 240 242 245 246 245 242 240 238 236 236 239
277 276 271 265 254 240 229 225 222 216 211 212 215 216 216 215 213 210 207 206 206 206 206 208 211 215 219 223 227 231 234 237 240 239 238 238 238 234 231 232 235 234 233 234 234 229 223 220 222 224 225 226 228 230 231 231 234 236 237 237 239 240 240 241 242 243 243 242 241 240 241 238 232 230 232 236 239 241 243 244 244 243 241 239 238 239 243
268 267 266 263 258 247 233 225 225 220 212 209 211 215 217 218 216 213 210 209 207 205 204 205 206 208 211 214 219 225 230 233 236 239 240 240 241 240 238 235 235 237 235 233 233 234 233 231 228 227 227 228 230 231 232 233 234 236 236 237 239 240 242 244 245 246 247 247 245 244 244 242 238 235 236 238 242 244 245 244 244 243 243 243 243 245 246
261 260 259 257 256 253 241 229 225 222 214 207 206 210 216 221 221 218 214 212 210 208 205 203 203 205 206 208 211 217 223 227 228 230 234 238 239 241 242 241 238 238 238 236 234 233 234 235 235 234 232 232 233 234 234 236 237 238 239 239 240 240 242 243 244 246 247 248 247 245 245 244 242 241 242 245 246 246 245 244 244 244 244 245 247 247 247
262 257 254 251 250 251 246 236 229 225 220 212 207 205 209 217 221 220 218 216 214 212 209 206 205 204 205 206 207 210 214 219 220 220 221 226 232 236 239 241 241 239 239 238 237 235 234 234 235 235 235 236 236 236 237 238 239 240 240 241 242 242 243 243 244 245 246 247 246 245 244 245 245 246 247 248 246 243 242 244 246 247 247 248 249 250 250
267 258 252 248 246 246 245 241 234 230 225 220 213 207 205 208 214 218 218 217 216 215 213 211 210 209 208 207 208 208 209 211 214 213 212 214 220 227 232 235 237 238 239 238 238 237 236 235 234 234 234 235 236 237 238 239 240 241 241 241 241 241 242 243 245 245 246 246 247 246 246 246 247 248 250 250 248 246 244 245 246 247 248 250 251 251 251
266 261 253 247 243 241 241 240 237 233 230 226 221 214 208 206 208 212 214 215 215 216 215 214 213 213 212 211 210 210 210 209 210 210 210 210 211 215 221 226 229 231 233 235 236 236 236 235 235 234 234 234 234 236 237 239 240 242 243 243 242 242 242 243 244 245 245 246 247 248 248 248 248 249 250 251 251 251 250 248 246 246 247 248 249 249 249
263 261 256 249 242 239 238 236 235 233 232 231 228 223 216 210 208 209 211 213 214 215 215 215 214 215 215 214 212 212 212 211 211 211 211 211 211 211 212 215 218 219 222 225 229 231 232 233 234 234 234 234 234 235 237 239 240 241 243 244 243 243 243 244 244 245 244 244 245 246 247 248 248 249 250 251 252 252 251 249 247 246 247 248 249 250 250
261 259 256 251 244 239 236 233 232 231 231 231 231 228 222 217 212 209 209 210 213 214 214 214 214 215 216 216 215 214 213 212 213 213 212 212 213 212 212 212 213 214 214 216 219 222 225 228 231 232 233 234 234 235 237 239 240 241 242 243 243 243 243 243 244 244 244 243 243 244 245 247 248 250 252 253 253 252 251 249 248 248 249 251 252 252 253
260 256 254 251 246 241 235 231 229 229 228 228 229 229 225 221 217 213 210 210 211 214 215 215 214 214 215 216 216 215 214 213 214 214 214 214 214 214 214 214 214 214 214 215 216 217 220 222 225 227 230 232 233 235 236 238 239 241 242 243 243 243 243 243 242 243 243 243 242 242 243 245 246 248 249 249 249 249 250 250 250 251 251 253 254 255 256
261 254 251 249 247 243 237 231 228 227 226 224 225 226 225 223 221 218 215 212 210 212 214 215 216 216 217 217 216 216 216 215 215 216 216 216 215 215 215 216 216 217 218 218 218 218 218 220 221 223 224 227 230 233 236 237 239 240 241 242 243 244 244 245 245 245 245 245 245 244 244 244 244 244 244 245 246 248 250 251 252 253 253 254 255 257 258
266 257 249 247 247 244 240 234 229 226 224 223 222 223 223 223 223 221 219 215 212 211 212 214 215 217 218 219 219 218 217 217 218 218 218 218 217 217 217 218 218 218 219 220 221 221 221 221 222 222 223 224 226 229 232 235 237 238 239 240 241 242 243 243 244 244 244 244 245 245 245 245 246 246 247 247 249 250 251 251 251 251 252 252 251 250 251
272 263 252 245 244 242 240 237 232 227 224 221 220 220 220 221 221 222 222 220 216 213 212 213 214 216 217 218 220 220 220 219 220 221 221 221 221 220 220 220 220 219 220 220 221 222 223 223 224 224 225 225 226 227 228 230 233 234 236 237 237 238 239 240 240 241 241 241 242 242 243 244 245 246 247 247 248 249 250 249 249 250 250 250 249 248 247
Height
5701 5705 5707 5709 5711 5713 5718 5722 5725 5728 5732 5737 5741 5746 5754 5761 5765 5772 5780 5786 5790 5794 5794 5794 5797 5800 5805 5809 5812 5815 5818 5821 5825 5828 5831 5835 5839 5841 5844 5847 5850 5853 5855 5858 5863 5866 5868 5870 5872 5875 5877 5879 5881 5883 5885 5887 5889 5892 5895 5897 5899 5900 5901 5903 5906 5908 5910 5911 5914 5916 5918 5920 5922 5924 5926 5928 5930 5933 5935 5937 5938 5939 5940 5942 5943 5944 5945
5692 5695 5699 5702 5703 5707 5712 5715 5719 5724 5729 5733 5736 5741 5748 5754 5759 5767 5774 5780 5786 5787 5785 5788 5794 5796 5801 5805 5807 5809 5813 5817 5820 5823 5826 5829 5831 5834 5837 5840 5843 5846 5849 5853 5858 5861 5863 5865 5868 5871 5874 5876 5878 5880 5882 5884 5887 5889 5892 5895 5897 5899 5900 5901 5903 5905 5907 5909 5911 5913 5916 5918 5920 5922 5924 5926 5928 5931 5933 5935 5936 5937 5939 5940 5942 5943 5944
5683 5686 5692 5695 5697 5702 5706 5709 5713 5719 5724 5729 5732 5737 5741 5745 5752 5761 5767 5773 5779 5779 5780 5785 5789 5792 5797 5800 5801 5804 5809 5812 5814 5818 5821 5824 5826 5830 5833 5835 5838 5841 5845 5849 5853 5857 5859 5862 5865 5868 5871 5874 5876 5878 5880 5882 5884 5886 5889 5892 5895 5897 5898 5899 5901 5902 5904 5907 5909 5911 5913 5916 5918 5920 5922 5924 5926 5928 5930 5932 5934 5936 5937 5939 5940 5941 5943
5675 5680 5686 5690 5694 5697 5699 5702 5708 5713 5718 5724 5728 5732 5735 5740 5748 5756 5761 5767 5772 5774 5777 5780 5782 5787 5791 5793 5795 5800 5805 5807 5809 5813 5816 5818 5821 5825 5829 5832 5836 5839 5842 5846 5850 5854 5857 5859 5862 5865 5869 5871 5874 5875 5877 5880 5882 5884 5886 5889 5892 5894 5896 5897 5898 5900 5902 5904 5906 5908 5911 5913 5916 5918 5920 5922 5924 5926 5928 5930 5932 5933 5935 5937 5938 5940 5941
5670 5676 5680 5684 5688 5688 5688 5696 5704 5709 5713 5719 5722 5727 5732 5737 5743 5749 5755 5761 5764 5766 5771 5774 5777 5781 5786 5789 5792 5796 5800 5803 5805 5808 5811 5814 5817 5821 5825 5829 5833 5836 5839 5843 5846 5850 5853 5855 5859 5862 5866 5868 5871 5873 5876 5878 5880 5881 5883 5886 5889 5891 5893 5895 5897 5898 5900 5902 5904 5906 5908 5911 5913 5915 5917 5919 5922 5924 5926 5927 5929 5931 5933 5935 5936 5937 5939
5665 5671 5675 5677 5679 5679 5684 5697 5705 5706 5709 5713 5717 5722 5727 5731 5735 5739 5745 5749 5750 5755 5763 5769 5773 5777 5781 5785 5788 5791 5796 5800 5803 5805 5808 5811 5815 5819 5823 5827 5830 5833 5837 5841 5844 5848 5850 5852 5855 5859 5861 5865 5868 5870 5872 5874 5876 5878 5880 5883 5886 5888 5891 5893 5895 5896 5897 5899 5902 5904 5906 5908 5910 5912 5915 5917 5919 5921 5923 5925 5927 5929 5931 5932 5934 5935 5937
5662 5667 5669 5670 5671 5676 5687 5696 5697 5697 5702 5707 5712 5717 5721 5726 5730 5734 5738 5741 5744 5751 5760 5766 5771 5775 5778 5781 5784 5789 5794 5797 5799 5802 5805 5809 5813 5816 5820 5824 5827 5831 5835 5838 5842 5845 5848 5850 5853 5855 5857 5861 5864 5866 5868 5870 5873 5876 5878 5881 5883 5886 5888 5890 5892 5894 5895 5897 5899 5901 5904 5906 5908 5910 5912 5915 5917 5918 5920 5922 5924 5926 5928 5929 5931 5933 5934
5658 5661 5663 5664 5667 5676 5684 5685 5684 5689 5695 5699 5704 5709 5713 5720 5726 5730 5734 5737 5740 5748 5757 5763 5768 5772 5775 5777 5781 5787 5791 5793 5795 5799 5801 5805 5809 5813 5817 5820 5824 5828 5832 5835 5839 5842 5845 5848 5850 5852 5855 5858 5861 5863 5865 5868 5871 5873 5875 5878 5881 5883 5885 5888 5890 5892 5893 5894 5897 5899 5901 5903 5906 5908 5910 5912 5914 5916 5917 5919 5921 5923 5925 5926 5928 5930 5931
5654 5657 5659 5661 5666 5673 5676 5675 5679 5686 5690 5692 5697 5702 5708 5716 5720 5723 5726 5729 5734 5742 5750 5758 5763 5767 5771 5774 5776 5782 5787 5789 5793 5796 5798 5802 5806 5809 5813 5817 5820 5824 5828 5832 5835 5839 5843 5846 5848 5850 5853 5855 5858 5861 5863 5865 5868 5870 5873 5876 5879 5881 5883 5885 5888 5889 5890 5892 5894 5897 5899 5901 5903 5905 5907 5909 5911 5913 5914 5916 5918 5920 5922 5923 5925 5926 5928
5650 5652 5654 5658 5662 5666 5667 5670 5676 5681 5683 5687 5693 5698 5704 5711 5713 5715 5718 5722 5728 5735 5742 5751 5758 5762 5766 5768 5769 5776 5782 5786 5791 5794 5796 5799 5803 5806 5809 5813 5817 5821 5825 5829 5833 5836 5839 5843 5846 5849 5852 5853 5855 5858 5860 5863 5866 5868 5871 5874 5877 5879 5881 5883 5885 5886 5888 5890 5892 5894 5896 5898 5900 5902 5904 5906 5908 5909 5911 5913 5915 5916 5918 5920 5921 5923 5925
5647 5648 5650 5654 5657 5659 5662 5667 5671 5675 5679 5685 5691 5694 5696 5699 5703 5707 5711 5715 5722 5729 5737 5745 5751 5754 5758 5761 5764 5772 5779 5782 5787 5792 5793 5796 5799 5803 5806 5810 5814 5818 5822 5826 5830 5833 5836 5841 5844 5846 5849 5851 5853 5855 5858 5861 5863 5865 5869 5872 5875 5877 5879 5880 5882 5884 5885 5887 5890 5892 5893 5895 5897 5899 5901 5902 5904 5906 5907 5909 5911 5913 5914 5916 5918 5920 5922
5644 5646 5648 5651 5652 5654 5658 5662 5665 5669 5675 5680 5684 5685 5686 5689 5695 5702 5706 5712 5718 5724 5732 5739 5743 5746 5753 5757 5761 5769 5775 5778 5783 5788 5790 5793 5796 5799 5803 5807 5810 5815 5819 5823 5827 5829 5833 5837 5841 5843 5845 5848 5851 5853 5856 5858 5860 5864 5868 5870 5873 5875 5876 5878 5879 5881 5882 5884 5887 5889 5890 5892 5893 5895 5897 5899 5900 5902 5904 5905 5907 5909 5911 5913 5915 5917 5918
5643 5644 5645 5647 5649 5650 5654 5658 5660 5665 5670 5672 5674 5676 5680 5686 5692 5697 5702 5707 5713 5718 5726 5734 5738 5742 5750 5755 5758 5765 5770 5774 5778 5783 5786 5790 5793 5796 5799 5803 5807 5811 5816 5820 5823 5826 5829 5833 5837 5840 5842 5844 5848 5851 5853 5855 5858 5862 5865 5867 5869 5871 5873 5875 5877 5878 5880 5881 5883 5885 5886 5888 5890 5891 5893 5895 5897 5899 5901 5902 5904 5906 5908 5910 5911 5913 5914
5640 5640 5641 5643 5644 5646 5649 5654 5657 5661 5665 5666 5667 5671 5677 5682 5686 5691 5696 5702 5707 5713 5720 5729 5735 5740 5747 5751 5754 5759 5765 5770 5774 5778 5782 5786 5789 5792 5796 5799 5803 5807 5812 5816 5819 5822 5825 5830 5834 5836 5838 5841 5844 5848 5851 5853 5856 5859 5861 5863 5866 5868 5870 5872 5874 5876 5877 5878 5880 5882 5883 5885 5886 5888 5890 5892 5894 5896 5897 5899 5901 5903 5905 5907 5908 5910 5911
5637 5637 5637 5638 5640 5642 5646 5650 5653 5656 5659 5662 5664 5668 5673 5677 5682 5687 5692 5697 5702 5707 5716 5725 5732 5736 5742 5746 5748 5754 5761 5766 5770 5774 5778 5782 5785 5789 5792 5795 5798 5803 5808 5811 5815 5818 5822 5827 5830 5832 5834 5838 5841 5845 5849 5852 5853 5854 5857 5860 5862 5865 5867 5869 5871 5873 5874 5875 5876 5878 5880 5881 5883 5884 5886 5888 5890 5893 5894 5896 5898 5900 5902 5903 5905 5906 5908
5633 5634 5634 5635 5637 5640 5644 5647 5649 5652 5655 5658 5661 5664 5668 5673 5678 5684 5688 5693 5698 5704 5712 5721 5728 5732 5737 5741 5744 5750 5757 5762 5767 5771 5774 5778 5782 5785 5788 5791 5794 5798 5803 5807 5811 5815 5818 5822 5825 5827 5830 5834 5838 5842 5846 5847 5847 5849 5853 5856 5859 5861 5864 5866 5868 5870 5871 5872 5873 5875 5876 5878 5879 5881 5883 5885 5887 5889 5891 5893 5895 5897 5898 5900 5901 5903 5905
5630 5631 5632 5633 5635 5638 5641 5643 5646 5649 5652 5655 5658 5662 5666 5670 5675 5681 5686 5691 5696 5701 5708 5717 5724 5728 5733 5737 5741 5747 5754 5759 5764 5767 5771 5774 5778 5781 5784 5787 5790 5795 5799 5803 5806 5810 5813 5816 5819 5822 5826 5830 5834 5837 5840 5841 5842 5846 5849 5852 5855 5858 5861 5863 5865 5867 5868 5869 5870 5871 5873 5874 5876 5878 5880 5882 5884 5886 5888 5890 5892 5894 5895 5897 5899 5900 5902
5628 5628 5629 5631 5633 5636 5638 5640 5643 5647 5650 5652 5656 5661 5664 5667 5671 5677 5683 5689 5693 5698 5704 5712 5719 5724 5728 5733 5738 5744 5750 5756 5760 5764 5768 5771 5774 5777 5781 5784 5787 5791 5795 5799 5802 5805 5808 5811 5814 5817 5821 5825 5829 5832 5835 5837 5839 5842 5846 5849 5852 5855 5857 5859 5862 5863 5864 5865 5867 5868 5870 5871 5873 5875 5877 5879 5881 5883 5884 5886 5889 5890 5892 5894 5896 5897 5899
5626 5627 5627 5629 5631 5634 5636 5638 5641 5644 5647 5650 5654 5659 5662 5665 5668 5673 5679 5685 5690 5695 5700 5708 5714 5719 5723 5728 5734 5740 5746 5752 5756 5761 5765 5768 5771 5774 5778 5781 5784 5789 5792 5795 5798 5801 5804 5807 5810 5813 5816 5820 5824 5827 5830 5833 5836 5838 5842 5846 5849 5851 5854 5856 5858 5859 5861 5862 5863 5865 5867 5869 5870 5872 5874 5876 5878 5880 5882 5883 5885 5887 5889 5891 5893 5895 5896
5625 5625 5625 5627 5629 5631 5633 5636 5639 5642 5645 5648 5651 5656 5659 5663 5666 5669 5674 5681 5687 5692 5698 5704 5710 5714 5719 5724 5730 5736 5743 5748 5753 5757 5761 5764 5768 5772 5775 5778 5782 5785 5789 5792 5795 5798 5800 5803 5806 5809 5812 5816 5819 5823 5826 5829 5832 5835 5839 5843 5845 5848 5850 5852 5854 5856 5857 5858 5860 5862 5864 5865 5867 5869 5871 5873 5875 5877 5879 5880 5882 5884 5886 5888 5890 5892 5893
5624 5624 5625 5626 5627 5629 5631 5634 5637 5639 5642 5645 5648 5653 5657 5660 5663 5666 5670 5676 5683 5689 5694 5700 5705 5710 5715 5721 5727 5733 5739 5744 5749 5754 5757 5761 5765 5769 5772 5775 5779 5782 5786 5789 5791 5794 5797 5799 5802 5806 5809 5812 5816 5819 5823 5826 5829 5832 5836 5839 5842 5844 5847 5849 5850 5852 5853 5855 5857 5859 5860 5862 5864 5866 5868 5870 5872 5874 5875 5877 5879 5881 5883 5885 5887 5888 5890
5622 5623 5623 5624 5626 5627 5629 5632 5634 5636 5639 5642 5646 5650 5654 5657 5661 5664 5667 5673 5679 5685 5691 5697 5701 5706 5712 5718 5723 5729 5735 5740 5746 5750 5754 5758 5763 5766 5770 5773 5775 5779 5782 5785 5788 5791 5793 5796 5799 5802 5804 5808 5811 5814 5818 5822 5826 5829 5833 5836 5839 5841 5843 5845 5847 5848 5850 5852 5854 5855 5857 5859 5861 5863 5865 5867 5869 5870 5872 5875 5877 5879 5880 5882 5884 5885 5887
5621 5621 5622 5623 5624 5625 5627 5629 5631 5633 5636 5639 5643 5647 5651 5655 5658 5661 5664 5670 5676 5682 5688 5693 5698 5703 5709 5714 5720 5726 5732 5737 5742 5747 5751 5755 5760 5763 5767 5769 5772 5776 5779 5782 5784 5788 5790 5792 5794 5797 5800 5804 5807 5810 5814 5818 5822 5826 5830 5833 5835 5837 5839 5841 5843 5845 5847 5849 5851 5853 5854 5856 5858 5860 5862 5863 5865 5867 5870 5872 5874 5875 5877 5879 5881 5882 5884
5618 5619 5619 5620 5622 5623 5625 5627 5628 5630 5633 5636 5640 5644 5648 5652 5655 5658 5662 5667 5673 5679 5685 5690 5694 5699 5705 5711 5716 5722 5728 5734 5739 5744 5748 5752 5756 5760 5763 5766 5768 5771 5774 5777 5780 5783 5785 5788 5791 5793 5796 5799 5802 5806 5810 5815 5818 5822 5826 5829 5831 5834 5836 5837 5840 5842 5844 5845 5848 5849 5851 5853 5855 5857 5858 5860 5862 5864 5866 5868 5870 5872 5874 5876 5877 5879 5881
5616 5617 5617 5618 5619 5621 5622 5624 5626 5628 5630 5633 5637 5641 5645 5649 5652 5655 5659 5663 5668 5674 5680 5685 5690 5696 5701 5707 5712 5719 5725 5730 5735 5740 5744 5748 5752 5756 5759 5761 5763 5765 5768 5771 5774 5777 5779 5783 5786 5790 5793 5796 5799 5802 5807 5811 5815 5819 5823 5825 5827 5829 5831 5833 5836 5838 5840 5842 5844 5846 5848 5850 5852 5853 5855 5857 5859 5861 5863 5864 5866 5868 5870 5872 5874 5876 5878
5614 5615 5615 5616 5617 5618 5620 5622 5623 5625 5628 5631 5635 5639 5643 5646 5649 5652 5655 5659 5664 5670 5676 5681 5687 5692 5697 5703 5708 5715 5721 5726 5731 5735 5739 5743 5746 5750 5754 5756 5757 5759 5764 5767 5770 5772 5775 5779 5783 5786 5790 5793 5796 5800 5804 5809 5812 5815 5818 5821 5823 5825 5827 5830 5832 5834 5836 5838 5841 5842 5844 5846 5849 5850 5852 5853 5855 5857 5859 5861 5863 5865 5867 5869 5871 5873 5875
5613 5613 5613 5614 5614 5615 5617 5619 5621 5623 5626 5629 5632 5636 5640 5643 5646 5649 5653 5657 5661 5667 5672 5678 5683 5689 5694 5699 5705 5710 5716 5721 5726 5730 5734 5737 5741 5745 5748 5751 5752 5756 5761 5765 5768 5770 5774 5777 5780 5783 5787 5790 5793 5797 5801 5805 5808 5811 5813 5816 5818 5821 5823 5826 5829 5831 5832 5834 5837 5838 5840 5842 5845 5847 5848 5850 5852 5854 5856 5858 5859 5861 5863 5866 5868 5869 5871
5612 5611 5611 5611 5612 5613 5614 5616 5618 5620 5623 5626 5630 5634 5638 5641 5643 5647 5650 5654 5659 5664 5670 5675 5680 5685 5690 5695 5700 5705 5710 5715 5720 5725 5728 5732 5737 5740 5743 5746 5748 5752 5757 5762 5765 5768 5771 5774 5777 5780 5784 5787 5791 5795 5798 5801 5804 5807 5809 5811 5814 5816 5819 5822 5824 5826 5828 5830 5832 5834 5836 5839 5841 5843 5844 5846 5849 5851 5853 5854 5856 5858 5860 5861 5863 5865 5867
5611 5610 5610 5609 5610 5611 5612 5614 5616 5618 5621 5624 5628 5632 5635 5638 5641 5644 5648 5652 5657 5662 5667 5672 5677 5682 5687 5691 5696 5701 5705 5709 5715 5719 5723 5727 5732 5735 5738 5741 5744 5747 5751 5757 5761 5764 5767 5770 5773 5776 5780 5784 5788 5791 5794 5797 5800 5802 5805 5807 5810 5813 5815 5817 5820 5821 5823 5826 5828 5830 5832 5834 5835 5837 5840 5842 5845 5848 5849 5850 5851 5854 5855 5856 5857 5860 5862
5610 5609 5608 5608 5608 5609 5610 5612 5613 5616 5619 5622 5625 5629 5632 5635 5639 5642 5646 5650 5654 5659 5663 5669 5673 5678 5683 5687 5692 5697 5701 5705 5710 5714 5718 5722 5726 5730 5732 5735 5738 5742 5746 5752 5756 5759 5761 5763 5767 5771 5775 5779 5782 5786 5789 5792 5795 5797 5800 5802 5805 5808 5810 5812 5815 5817 5819 5821 5823 5825 5827 5828 5830 5833 5836 5838 5840 5842 5843 5844 5846 5848 5849 5850 5852 5855 5857
5608 5608 5607 5607 5607 5607 5608 5610 5612 5614 5617 5620 5623 5626 5629 5632 5636 5640 5643 5647 5651 5656 5660 5664 5669 5674 5679 5683 5687 5692 5696 5700 5705 5709 5713 5716 5720 5723 5726 5729 5732 5736 5741 5746 5750 5752 5754 5757 5761 5765 5769 5773 5776 5780 5783 5786 5789 5791 5793 5796 5800 5802 5805 5807 5809 5811 5813 5815 5817 5820 5822 5824 5826 5829 5831 5833 5834 5835 5837 5839 5840 5842 5844 5846 5848 5850 5851
5607 5606 5606 5606 5606 5606 5607 5608 5610 5612 5615 5618 5621 5624 5627 5630 5633 5636 5640 5645 5649 5653 5656 5660 5665 5670 5674 5679 5683 5687 5691 5695 5700 5704 5708 5712 5715 5718 5721 5724 5727 5731 5735 5739 5743 5747 5750 5753 5756 5759 5762 5766 5769 5773 5777 5780 5782 5784 5787 5790 5794 5796 5799 5801 5804 5806 5808 5810 5813 5815 5818 5820 5822 5824 5825 5826 5828 5829 5831 5833 5835 5837 5839 5841 5842 5844 5846
5605 5605 5605 5605 5605 5605 5605 5607 5608 5610 5612 5615 5619 5622 5625 5628 5630 5634 5638 5642 5646 5650 5654 5657 5661 5666 5670 5674 5678 5682 5687 5690 5694 5698 5703 5707 5709 5711 5715 5718 5721 5725 5729 5732 5736 5741 5745 5748 5751 5752 5753 5757 5762 5766 5770 5772 5774 5777 5781 5784 5787 5790 5793 5796 5798 5801 5803 5805 5808 5810 5813 5815 5816 5818 5819 5820 5821 5823 5825 5827 5830 5832 5834 5835 5836 5837 5839
5605 5604 5604 5604 5604 5604 5604 5605 5607 5608 5610 5613 5616 5620 5623 5626 5629 5632 5635 5638 5642 5646 5650 5654 5658 5662 5666 5670 5674 5678 5682 5685 5688 5692 5697 5701 5702 5702 5704 5708 5713 5718 5723 5726 5729 5733 5737 5742 5746 5748 5749 5751 5754 5758 5760 5763 5766 5770 5774 5778 5781 5784 5787 5789 5792 5795 5797 5800 5802 5805 5807 5809 5810 5811 5812 5813 5815 5817 5819 5821 5824 5826 5827 5828 5829 5831 5832
5605 5604 5603 5603 5603 5603 5604 5605 5606 5607 5609 5611 5614 5617 5620 5624 5627 5629 5632 5636 5639 5643 5646 5650 5654 5658 5661 5665 5669 5673 5677 5680 5683 5686 5690 5693 5695 5695 5696 5698 5703 5709 5715 5720 5722 5725 5729 5734 5739 5742 5746 5748 5749 5750 5750 5754 5759 5765 5770 5773 5776 5779 5782 5784 5786 5788 5790 5793 5797 5800 5803 5804 5805 5806 5807 5808 5809 5811 5813 5815 5817 5819 5821 5822 5824 5825 5826
5604 5603 5603 5603 5603 5602 5603 5604 5605 5606 5607 5609 5612 5615 5618 5621 5624 5627 5630 5633 5637 5640 5643 5647 5650 5653 5657 5660 5664 5668 5671 5675 5678 5681 5683 5686 5689 5690 5691 5693 5696 5701 5708 5713 5716 5719 5723 5727 5731 5735 5739 5743 5745 5746 5745 5747 5752 5758 5763 5767 5770 5773 5777 5779 5781 5783 5784 5787 5791 5794 5797 5799 5800 5801 5803 5804 5805 5806 5807 5810 5811 5813 5814 5816 5818 5819 5821
5604 5603 5602 5602 5602 5602 5602 5603 5604 5605 5606 5608 5610 5612 5615 5618 5621 5624 5627 5630 5633 5637 5640 5644 5646 5649 5652 5655 5659 5662 5666 5669 5673 5676 5677 5680 5683 5685 5686 5689 5692 5696 5700 5705 5709 5712 5715 5719 5723 5727 5732 5737 5741 5743 5743 5744 5746 5749 5754 5759 5762 5766 5769 5771 5774 5777 5779 5781 5784 5788 5791 5793 5795 5796 5797 5800 5802 5802 5802 5804 5806 5808 5809 5810 5812 5814 5815
5603 5603 5602 5601 5601 5601 5602 5602 5603 5604 5605 5606 5608 5610 5612 5615 5618 5620 5623 5627 5630 5633 5636 5639 5642 5645 5648 5652 5655 5658 5662 5665 5668 5670 5673 5676 5679 5681 5682 5685 5688 5690 5693 5696 5701 5705 5707 5711 5715 5721 5726 5730 5734 5737 5739 5741 5742 5744 5747 5751 5755 5758 5761 5764 5767 5771 5774 5776 5778 5781 5784 5787 5790 5792 5793 5795 5797 5797 5796 5798 5800 5802 5803 5805 5806 5808 5809
5603 5602 5601 5601 5601 5601 5601 5601 5602 5603 5604 5605 5606 5608 5610 5612 5614 5617 5620 5623 5626 5628 5631 5634 5638 5641 5645 5648 5651 5654 5656 5659 5662 5666 5669 5672 5675 5676 5678 5680 5682 5685 5687 5691 5695 5699 5701 5705 5710 5715 5720 5723 5727 5730 5733 5736 5738 5741 5744 5746 5749 5752 5756 5759 5762 5765 5769 5771 5772 5775 5777 5780 5783 5786 5788 5789 5790 5791 5791 5792 5794 5796 5798 5799 5800 5802 5803
5601 5601 5600 5600 5600 5600 5600 5601 5601 5601 5602 5603 5605 5606 5608 5610 5612 5614 5616 5619 5621 5624 5627 5630 5633 5637 5640 5643 5646 5649 5651 5654 5657 5661 5664 5667 5670 5672 5675 5677 5678 5680 5684 5688 5691 5695 5698 5701 5705 5710 5714 5717 5721 5723 5726 5729 5733 5736 5740 5744 5746 5749 5752 5755 5757 5760 5762 5765 5766 5769 5771 5774 5776 5778 5780 5782 5784 5785 5787 5788 5788 5790 5793 5794 5795 5796 5797
5599 5599 5599 5599 5598 5598 5599 5599 5599 5600 5601 5602 5603 5605 5606 5608 5609 5611 5613 5616 5618 5621 5623 5626 5629 5632 5636 5639 5642 5644 5647 5650 5653 5657 5660 5662 5665 5668 5671 5673 5675 5677 5680 5683 5687 5691 5694 5698 5701 5704 5708 5712 5715 5718 5720 5724 5727 5731 5735 5739 5742 5744 5747 5751 5754 5755 5757 5759 5761 5763 5765 5768 5770 5771 5773 5775 5777 5779 5781 5782 5783 5784 5786 5788 5789 5790 5791
5597 5597 5598 5598 5597 5597 5597 5598 5598 5598 5599 5600 5602 5603 5604 5605 5607 5609 5611 5613 5615 5618 5621 5623 5626 5629 5632 5634 5637 5640 5643 5646 5649 5652 5655 5658 5661 5664 5668 5671 5673 5675 5676 5679 5683 5686 5690 5693 5697 5700 5703 5706 5709 5712 5716 5719 5722 5726 5729 5733 5735 5738 5742 5745 5748 5749 5751 5753 5756 5758 5759 5761 5764 5766 5767 5769 5771 5772 5774 5776 5777 5778 5779 5780 5781 5783 5785
5595 5595 5595 5596 5596 5595 5595 5596 5596 5597 5597 5598 5600 5601 5602 5603 5605 5607 5609 5611 5613 5615 5618 5620 5623 5625 5628 5631 5634 5636 5639 5642 5646 5649 5651 5654 5657 5660 5664 5667 5670 5672 5674 5676 5679 5682 5685 5688 5692 5695 5699 5701 5704 5707 5710 5713 5716 5719 5723 5726 5729 5732 5735 5738 5741 5743 5744 5747 5750 5752 5753 5755 5758 5760 5762 5763 5764 5766 5767 5769 5770 5771 5772 5772 5774 5775 5777
5593 5593 5593 5593 5593 5593 5594 5594 5594 5595 5596 5596 5598 5599 5601 5602 5603 5604 5606 5608 5610 5612 5615 5617 5619 5622 5625 5628 5630 5633 5636 5639 5642 5645 5647 5650 5653 5656 5659 5663 5666 5668 5671 5673 5675 5678 5681 5683 5686 5689 5693 5696 5698 5701 5704 5707 5709 5711 5715 5718 5721 5724 5727 5730 5733 5735 5738 5740 5742 5744 5747 5749 5751 5753 5756 5757 5759 5760 5762 5763 5764 5765 5766 5766 5767 5768 5769
5591 5591 5591 5591 5591 5591 5591 5592 5592 5593 5594 5595 5595 5597 5598 5600 5601 5602 5604 5606 5607 5609 5611 5614 5616 5619 5622 5624 5627 5629 5632 5635 5638 5641 5644 5646 5648 5651 5654 5658 5661 5664 5667 5669 5671 5674 5677 5679 5682 5684 5687 5689 5692 5695 5697 5700 5702 5704 5706 5710 5713 5716 5719 5721 5724 5727 5730 5732 5734 5737 5739 5741 5743 5746 5748 5751 5753 5755 5756 5757 5758 5758 5759 5759 5760 5761 5762
5588 5588 5589 5589 5588 5589 5589 5590 5590 5591 5592 5592 5593 5594 5595 5597 5598 5600 5601 5603 5604 5606 5608 5610 5613 5615 5618 5620 5623 5626 5628 5631 5634 5637 5640 5642 5644 5647 5650 5653 5657 5660 5662 5665 5667 5670 5672 5675 5677 5679 5681 5684 5686 5689 5691 5694 5696 5698 5700 5702 5705 5708 5711 5714 5717 5719 5722 5724 5726 5729 5731 5733 5735 5738 5740 5743 5745 5747 5749 5749 5749 5749 5750 5751 5752 5753 5754
5586 5586 5586 5586 5586 5586 5587 5587 5588 5589 5589 5590 5591 5592 5593 5594 5596 5597 5599 5600 5602 5603 5605 5607 5609 5612 5614 5617 5619 5622 5625 5627 5630 5633 5635 5638 5641 5643 5646 5649 5652 5655 5657 5660 5662 5665 5667 5670 5672 5675 5677 5679 5681 5683 5685 5688 5690 5692 5694 5696 5698 5701 5704 5706 5709 5712 5714 5716 5719 5721 5724 5726 5728 5730 5732 5734 5736 5737 5739 5740 5740 5741 5741 5743 5744 5746 5747
5583 5583 5583 5583 5584 5584 5584 5585 5586 5586 5587 5587 5588 5589 5590 5591 5593 5594 5596 5597 5599 5601 5602 5604 5606 5608 5610 5613 5615 5618 5620 5623 5626 5629 5631 5634 5636 5639 5642 5644 5647 5649 5652 5654 5657 5660 5662 5665 5667 5670 5672 5674 5676 5678 5680 5682 5684 5686 5688 5690 5692 5694 5697 5699 5702 5704 5706 5709 5711 5713 5716 5718 5721 5722 5724 5726 5727 5729 5730 5731 5732 5733 5734 5735 5736 5737 5738
5580 5580 5580 5580 5581 5581 5582 5582 5583 5583 5584 5585 5586 5587 5588 5589 5590 5591 5593 5594 5596 5598 5599 5601 5603 5605 5607 5609 5612 5614 5616 5619 5621 5624 5627 5630 5632 5634 5637 5639 5642 5644 5647 5649 5652 5655 5657 5660 5662 5664 5666 5669 5671 5673 5675 5677 5679 5681 5683 5685 5687 5689 5692 5694 5696 5698 5699 5702 5704 5706 5708 5710 5712 5714 5716 5718 5719 5721 5722 5723 5724 5724 5725 5726 5727 5729 5730
5577 5577 5577 5577 5578 5579 5579 5580 5580 5581 5582 5583 5583 5584 5585 5586 5587 5588 5590 5591 5593 5595 5597 5598 5600 5602 5604 5606 5608 5611 5613 5615 5617 5620 5622 5625 5627 5630 5632 5635 5637 5639 5642 5644 5646 5649 5652 5654 5656 5658 5660 5662 5665 5667 5669 5671 5673 5675 5677 5679 5681 5683 5685 5688 5690 5692 5693 5695 5697 5699 5701 5703 5704 5707 5709 5711 5712 5713 5714 5715 5716 5717 5718 5719 5720 5722 5722
5574 5574 5574 5575 5575 5576 5576 5577 5577 5578 5579 5580 5581 5582 5583 5584 5585 5586 5587 5588 5590 5591 5593 5595 5597 5599 5601 5603 5605 5607 5609 5611 5613 5615 5618 5620 5623 5625 5628 5630 5632 5635 5637 5639 5641 5643 5646 5648 5650 5653 5654 5656 5658 5660 5662 5664 5666 5669 5671 5672 5674 5676 5678 5681 5683 5685 5686 5688 5690 5692 5694 5695 5697 5699 5701 5703 5704 5705 5706 5707 5708 5709 5710 5711 5712 5713 5714
5572 5571 5571 5572 5572 5573 5573 5574 5575 5575 5576 5577 5579 5580 5580 5581 5582 5583 5584 5585 5586 5588 5590 5592 5594 5596 5598 5600 5602 5604 5606 5608 5610 5612 5614 5616 5618 5621 5623 5625 5627 5630 5632 5634 5636 5638 5640 5642 5645 5647 5649 5651 5652 5654 5656 5658 5660 5661 5663 5665 5667 5669 5671 5673 5675 5677 5678 5680 5682 5684 5686 5687 5689 5690 5692 5694 5695 5696 5698 5699 5700 5701 5701 5702 5703 5704 5704